FW1818 Weather Reports


Display with metric or nautical units.
time (UTC)temp
F
wind
direction
speed
MPH
gust
MPH
rain 1hr
in
rain 24hr
in
rain mn
in
humidity
%
barometer
mb
20180521011817 67 129 0.0 4.0 0.00 0.00 0.00 58 1008.9
20180521005825 67 202 1.0 7.0 0.00 0.00 0.00 57 1008.8
20180521003833 68 111 1.0 6.0 0.00 0.00 0.00 57 1009.0
20180521001815 67 221 1.0 6.0 0.00 0.00 0.00 59 1008.6
20180520235827 66 23 2.0 6.0 0.00 0.00 0.00 59 1008.2
20180520233833 66 140 1.0 6.0 0.00 0.00 0.00 58 1008.5
20180520232318 67 316 1.0 8.0 0.00 0.00 0.00 57 1008.9
20180520230323 68 316 2.0 9.0 0.00 0.00 0.00 54 1008.9
20180520224817 69 319 2.0 9.0 0.00 0.00 0.00 54 1009.0
20180520222822 70 18 4.0 5.0 0.00 0.00 0.00 53 1009.1
20180520220820 60 240 33.0 39.0 0.00 0.00 0.00 66 1008.8
20180520214831 61 238 29.0 34.0 0.00 0.00 0.00 65 1009.2
20180520212825 62 231 23.0 29.0 0.00 0.00 0.00 64 1010.0
20180520211314 62 259 22.0 28.0 0.00 0.00 0.00 65 1010.1
20180520205325 62 253 20.0 28.0 0.00 0.00 0.00 66 1010.2
20180520203332 62 250 17.0 25.0 0.00 0.00 0.00 66 1010.7
20180520201814 61 254 18.0 26.0 0.00 0.00 0.00 67 1010.7
20180520195824 61 246 18.0 25.0 0.00 0.00 0.00 69 1011.0
20180520193828 59 255 17.0 23.0 0.00 0.00 0.00 70 1011.1
20180520191836 58 252 17.0 23.0 0.00 0.00 0.00 71 1011.7
20180520190322 58 239 19.0 24.0 0.00 0.00 0.00 73 1011.7
20180520184334 57 245 18.0 22.0 0.00 0.00 0.00 73 1011.5
20180520182331 57 235 18.0 22.0 0.00 0.00 0.00 76 1011.7
20180520175822 55 242 19.0 24.0 0.00 0.00 0.00 77 1011.4
20180520173833 55 248 18.0 22.0 0.00 0.00 0.00 78 1011.6
20180520172316 55 264 12.0 19.0 0.00 0.00 0.00 79 1011.9
20180520170331 55 250 15.0 22.0 0.00 0.00 0.00 77 1011.7
20180520164815 54 276 18.0 23.0 0.00 0.00 0.00 79 1011.8
20180520162826 53 244 17.0 23.0 0.00 0.00 0.00 80 1011.7
20180520160831 53 238 19.0 25.0 0.00 0.00 0.00 81 1011.8
20180520155321 52 247 15.0 21.0 0.00 0.00 0.00 84 1011.6
20180520153333 51 264 18.0 22.0 0.00 0.00 0.00 84 1011.3
20180520151815 51 235 13.0 23.0 0.00 0.00 0.00 86 1011.3
20180520145831 51 254 18.0 22.0 0.00 0.00 0.00 86 1011.1
20180520144328 51 231 18.0 26.0 0.00 0.00 0.00 87 1011.1
20180520141826 50 247 18.0 23.0 0.00 0.00 0.00 87 1010.9
20180520135832 50 249 13.0 25.0 0.00 0.00 0.00 88 1010.9
20180520133819 50 260 18.0 24.0 0.00 0.00 0.00 89 1010.5
20180520131828 50 244 18.0 25.0 0.00 0.00 0.00 88 1010.3
20180520130317 50 252 16.0 22.0 0.00 0.00 0.00 88 1010.3
20180520124330 50 243 17.0 25.0 0.00 0.00 0.00 89 1010.2
20180520122348 50 238 22.0 30.0 0.00 0.00 0.00 89 1009.9
20180520120325 50 264 19.0 25.0 0.00 0.00 0.00 89 1010.0
20180520114329 50 249 20.0 25.0 0.00 0.00 0.00 89 1010.1
20180520112355 50 254 27.0 33.0 0.00 0.00 0.00 88 1009.6
20180520100844 50 255 25.0 31.0 0.00 0.00 0.00 89 1009.6
20180520094319 50 238 22.0 28.0 0.00 0.00 0.00 89 1009.6
20180520092812 50 250 17.0 28.0 0.00 0.00 0.00 89 1009.8
20180520090820 50 247 18.0 25.0 0.00 0.00 0.00 89 1010.1
20180520084831 50 258 18.0 25.0 0.00 0.00 0.00 88 1010.1
20180520082824 51 271 17.0 23.0 0.00 0.00 0.00 89 1010.2
20180520081001 52 164 0.0 3.0 0.00 0.00 0.00 87 1010.2
20180520075343 52 118 0.0 3.0 0.00 0.00 0.00 87 1010.5
20180520073004 52 348 8.0 25.0 0.00 0.00 0.00 87 1010.4
20180520071305 52 219 15.0 29.0 0.00 0.00 0.00 86 1010.5
20180520064847 54 150 3.0 7.0 0.00 0.00 0.00 84 1010.5
20180520062324 54 157 4.0 10.0 0.00 0.00 0.00 84 1010.5
20180520060259 55 204 7.0 15.0 0.00 0.00 0.00 82 1010.8
20180520053331 55 199 6.0 12.0 0.00 0.00 0.00 82 1010.1
20180520051356 52 223 16.0 28.0 0.00 0.00 0.00 84 1010.4
20180520045345 52 242 20.0 37.0 0.00 0.00 0.00 81 1009.7
20180520041843 53 256 25.0 36.0 0.00 0.00 0.00 80 1009.3
20180520040027 53 247 25.0 32.0 0.00 0.00 0.00 81 1009.6
20180520033854 54 238 27.0 40.0 0.00 0.00 0.00 79 1009.4
20180520032210 54 245 32.0 40.0 0.00 0.00 0.00 78 1008.1
20180520025339 55 234 31.0 40.0 0.00 0.00 0.00 76 1008.3
20180520023821 55 252 29.0 40.0 0.00 0.00 0.00 75 1008.2
20180520021832 56 242 39.0 46.0 0.00 0.00 0.00 73 1007.3
20180520015832 56 241 43.0 51.0 0.00 0.00 0.00 72 1006.9
20180520013822 57 247 39.0 47.0 0.00 0.00 0.00 71 1007.5
20180520011839 58 233 41.0 49.0 0.00 0.00 0.00 69 1007.3
20180520005823 59 235 41.0 48.0 0.00 0.00 0.00 67 1007.2
20180520003825 59 240 36.0 45.0 0.00 0.00 0.00 68 1008.1
20180520001830 60 237 34.0 48.0 0.00 0.00 0.00 66 1008.2
20180519235836 60 239 45.0 53.0 0.00 0.00 0.00 68 1007.0
20180519233824 60 242 52.0 57.0 0.00 0.00 0.00 68 1005.9
20180519231835 61 240 45.0 53.0 0.00 0.00 0.00 66 1006.7
20180519230318 62 244 40.0 47.0 0.00 0.00 0.00 65 1007.7
20180519224352 62 242 31.0 38.0 0.00 0.00 0.00 65 1009.0
20180519222322 63 247 29.0 40.0 0.00 0.00 0.00 64 1009.0
20180519220339 63 240 33.0 39.0 0.00 0.00 0.00 63 1009.1
20180519214321 63 247 23.0 34.0 0.00 0.00 0.00 64 1010.2
20180519212326 62 245 26.0 34.0 0.00 0.00 0.00 64 1009.9
20180519210342 62 243 26.0 41.0 0.00 0.00 0.00 66 1009.9
20180519204819 62 236 28.0 41.0 0.00 0.00 0.00 66 1009.7
20180519202833 62 249 27.0 34.0 0.00 0.00 0.00 65 1010.0
20180519201322 61 238 27.0 35.0 0.00 0.00 0.00 65 1010.1
20180519195318 61 248 21.0 32.0 0.00 0.00 0.00 68 1010.7
20180519193330 61 244 20.0 27.0 0.00 0.00 0.00 70 1010.8
20180519191331 60 213 24.0 32.0 0.00 0.00 0.00 68 1011.0
20180519185822 59 247 25.0 31.0 0.00 0.00 0.00 71 1010.6
20180519184012 59 221 22.0 30.0 0.00 0.00 0.00 73 1010.8
20180519181822 57 236 28.0 35.0 0.00 0.00 0.00 74 1010.4
20180519175834 57 237 26.0 31.0 0.00 0.00 0.00 76 1010.6
20180519174317 57 252 21.0 32.0 0.00 0.00 0.00 79 1011.0
20180519172322 56 258 24.0 33.0 0.00 0.00 0.00 80 1010.5
20180519170327 55 245 22.0 33.0 0.00 0.00 0.00 81 1011.0
20180519164336 55 244 21.0 29.0 0.00 0.00 0.00 82 1010.8
20180519162819 55 263 17.0 25.0 0.00 0.00 0.00 81 1011.2
20180519160822 57 212 4.0 16.0 0.00 0.00 0.00 79 1010.8
20180519154834 56 271 3.0 16.0 0.00 0.00 0.00 81 1011.0
20180519152830 56 225 6.0 11.0 0.00 0.00 0.00 80 1010.8
20180519151328 56 242 1.0 6.0 0.00 0.00 0.00 80 1010.7
20180519145331 55 284 2.0 13.0 0.00 0.00 0.00 82 1010.5
20180519143819 55 241 5.0 10.0 0.00 0.00 0.00 81 1009.9
20180519141822 54 314 1.0 11.0 0.00 0.00 0.00 82 1010.5
20180519135826 54 323 2.0 10.0 0.00 0.00 0.00 83 1010.3
20180519133833 54 249 2.0 9.0 0.00 0.00 0.00 85 1010.3
20180519131839 53 156 5.0 12.0 0.00 0.00 0.00 87 1009.8
20180519130323 53 126 6.0 15.0 0.00 0.00 0.00 86 1009.3
20180519124331 52 205 1.0 5.0 0.00 0.00 0.00 87 1009.2
20180519122331 53 54 2.0 8.0 0.00 0.00 0.00 86 1008.9
20180519120319 53 351 2.0 6.0 0.00 0.00 0.00 86 1009.5
20180519114328 53 276 3.0 9.0 0.00 0.00 0.00 86 1009.0
20180519112334 51 240 32.0 38.0 0.00 0.00 0.00 87 1008.8
20180519110819 51 249 23.0 37.0 0.00 0.00 0.00 87 1009.6
20180519104835 51 241 25.0 40.0 0.00 0.00 0.00 88 1009.6
20180519103324 51 237 25.0 34.0 0.00 0.00 0.00 88 1009.4
20180519101503 51 238 33.0 41.0 0.00 0.00 0.00 88 1009.3
20180519095335 51 248 26.0 34.0 0.00 0.00 0.00 87 1009.7
20180519093819 51 229 20.0 29.0 0.00 0.00 0.00 89 1010.0
20180519091835 51 352 9.0 24.0 0.00 0.00 0.00 89 1010.4
20180519090301 51 234 21.0 35.0 0.00 0.00 0.00 87 1010.0
20180519084325 51 224 9.0 25.0 0.00 0.00 0.00 88 1010.5
20180519082330 51 227 13.0 26.0 0.00 0.00 0.00 88 1010.5
20180519080329 54 210 4.0 17.0 0.00 0.00 0.00 85 1010.1
20180519073827 54 177 5.0 15.0 0.00 0.00 0.00 86 1009.8
20180519071833 54 294 4.0 14.0 0.00 0.00 0.00 85 1009.4
20180519065851 55 79 7.0 18.0 0.00 0.00 0.00 84 1008.8
20180519063825 55 44 4.0 17.0 0.00 0.00 0.00 85 1008.1
20180519061827 55 238 7.0 17.0 0.00 0.00 0.00 85 1008.8
20180519055839 56 291 6.0 19.0 0.00 0.00 0.00 84 1008.9
20180519054323 56 275 4.0 13.0 0.00 0.00 0.00 83 1008.7
20180519052338 57 131 5.0 14.0 0.00 0.00 0.00 80 1009.4
20180519050331 57 27 3.0 7.0 0.00 0.00 0.00 79 1009.4
20180519044337 57 139 5.0 10.0 0.00 0.00 0.00 78 1010.0
20180519042826 58 89 5.0 12.0 0.00 0.00 0.00 78 1010.5
20180519040840 58 103 3.0 14.0 0.00 0.00 0.00 78 1010.0
20180519035322 58 184 2.0 14.0 0.00 0.00 0.00 78 1009.7
20180519033334 58 24 4.0 14.0 0.00 0.00 0.00 78 1009.7
20180519031336 59 186 5.0 14.0 0.00 0.00 0.00 77 1009.6
20180519025823 60 238 4.0 11.0 0.00 0.00 0.00 76 1010.0
20180519023834 61 197 8.0 15.0 0.00 0.00 0.00 74 1009.9
20180519022319 63 112 2.0 16.0 0.00 0.00 0.00 74 1009.8
20180519020326 63 179 3.0 19.0 0.00 0.00 0.00 73 1009.8
20180519014338 64 210 6.0 16.0 0.00 0.00 0.00 71 1009.8
20180519012332 65 214 5.0 20.0 0.00 0.00 0.00 70 1009.1
20180519010821 65 230 6.0 19.0 0.00 0.00 0.00 69 1009.5
20180519005006 66 225 6.0 20.0 0.00 0.00 0.00 67 1009.7
20180519003330 67 351 9.0 26.0 0.00 0.00 0.00 67 1009.3
20180519001333 68 264 9.0 20.0 0.00 0.00 0.00 66 1008.5
20180518235337 67 222 12.0 20.0 0.00 0.00 0.00 66 1008.0
20180518233335 69 271 12.0 22.0 0.00 0.00 0.00 63 1008.5
20180518231831 64 236 33.0 40.0 0.00 0.00 0.00 72 1009.1
20180518230322 64 242 35.0 43.0 0.00 0.00 0.00 72 1008.9
20180518224336 64 247 32.0 40.0 0.00 0.00 0.00 72 1009.2
20180518222338 65 245 28.0 34.0 0.00 0.00 0.00 70 1010.0
20180518220823 65 247 25.0 31.0 0.00 0.00 0.00 69 1010.5
20180518214829 64 243 28.0 34.0 0.00 0.00 0.00 71 1010.2
20180518212835 70 234 8.0 18.0 0.00 0.00 0.00 61 1010.5
20180518210844 70 209 9.0 19.0 0.00 0.00 0.00 62 1010.8
20180518205328 68 219 9.0 17.0 0.00 0.00 0.00 63 1010.5
20180518203341 68 214 9.0 17.0 0.00 0.00 0.00 65 1010.9
20180518201341 67 243 4.0 18.0 0.00 0.00 0.00 66 1011.0
20180518195831 67 196 8.0 15.0 0.00 0.00 0.00 66 1011.5
20180518193839 66 247 8.0 15.0 0.00 0.00 0.00 67 1011.5
20180518191847 66 259 6.0 15.0 0.00 0.00 0.00 69 1011.8
20180518185836 64 179 6.0 14.0 0.00 0.00 0.00 72 1012.0
20180518183847 63 173 7.0 18.0 0.00 0.00 0.00 73 1012.1
20180518181841 62 209 5.0 14.0 0.00 0.00 0.00 75 1012.2
20180518175851 60 228 9.0 19.0 0.00 0.00 0.00 77 1012.0
20180518173834 60 242 7.0 18.0 0.00 0.00 0.00 78 1012.1
20180518171836 60 184 8.0 16.0 0.00 0.00 0.00 79 1012.2
20180518165842 59 179 9.0 16.0 0.00 0.00 0.00 80 1012.0
20180518163847 58 240 6.0 16.0 0.00 0.00 0.00 81 1012.0
20180518162330 58 210 8.0 16.0 0.00 0.00 0.00 81 1012.3
20180518160345 57 214 6.0 16.0 0.00 0.00 0.00 83 1012.1
20180518154831 57 297 5.0 13.0 0.00 0.00 0.00 84 1011.9
20180518152846 56 145 1.0 6.0 0.00 0.00 0.00 87 1011.9
20180518151327 55 226 1.0 12.0 0.00 0.00 0.00 88 1011.7
20180518145334 54 237 1.0 8.0 0.00 0.00 0.00 89 1011.4
20180518143338 54 269 3.0 9.0 0.00 0.00 0.00 89 1011.6
20180518141349 54 247 3.0 12.0 0.00 0.00 0.00 89 1011.6
20180518135835 54 234 4.0 10.0 0.00 0.00 0.00 89 1011.4
20180518133843 54 194 5.0 14.0 0.00 0.00 0.00 89 1011.2
20180518132338 54 246 1.0 13.0 0.00 0.00 0.00 89 1010.9
20180518130345 54 279 2.0 11.0 0.00 0.00 0.00 88 1010.8
20180518124339 54 108 1.0 10.0 0.00 0.00 0.00 88 1011.0
20180518122827 54 248 4.0 8.0 0.00 0.00 0.00 88 1010.8
20180518120837 54 239 4.0 8.0 0.00 0.00 0.00 87 1010.9
20180518114846 54 298 3.0 9.0 0.00 0.00 0.00 87 1011.1
20180518113327 54 240 5.0 10.0 0.00 0.00 0.00 87 1010.9
20180518111347 54 203 3.0 7.0 0.00 0.00 0.00 88 1011.1
20180518105342 54 201 1.0 6.0 0.00 0.00 0.00 87 1011.2
20180518103516 54 233 1.0 11.0 0.00 0.00 0.00 87 1011.2
20180518101832 54 240 3.0 11.0 0.00 0.00 0.00 87 1011.1
20180518095841 54 244 3.0 9.0 0.00 0.00 0.00 87 1011.1
20180518093848 54 248 2.0 10.0 0.00 0.00 0.00 87 1011.0
20180518092331 55 320 4.0 9.0 0.00 0.00 0.00 87 1010.8
20180518090338 55 264 3.0 12.0 0.00 0.00 0.00 86 1011.2
20180518084422 52 224 16.0 29.0 0.00 0.00 0.00 88 1011.7
20180518082918 52 252 16.0 27.0 0.00 0.00 0.00 89 1011.7
20180518080918 52 216 22.0 31.0 0.00 0.00 0.00 88 1011.5
20180518074913 52 218 17.0 34.0 0.00 0.00 0.00 88 1011.8
20180518072919 52 230 23.0 38.0 0.00 0.00 0.00 87 1011.4
20180518071401 53 237 31.0 38.0 0.00 0.00 0.00 86 1011.0
20180518065408 53 233 31.0 40.0 0.00 0.00 0.00 86 1011.2
20180518063905 53 240 35.0 46.0 0.00 0.00 0.00 87 1010.8
20180518061902 53 230 36.0 44.0 0.00 0.00 0.00 86 1010.6
20180518055921 53 244 34.0 40.0 0.00 0.00 0.00 86 1010.9
20180518054406 53 231 33.0 41.0 0.00 0.00 0.00 86 1011.3
20180518052416 53 237 33.0 41.0 0.00 0.00 0.00 86 1011.0
20180518045912 53 240 38.0 45.0 0.00 0.00 0.00 85 1010.7
20180518044401 53 230 40.0 47.0 0.00 0.00 0.00 85 1010.5
20180518042403 53 240 37.0 50.0 0.00 0.00 0.00 84 1010.5
20180518040411 53 238 43.0 49.0 0.00 0.00 0.00 84 1010.2
20180518034420 53 233 41.0 50.0 0.00 0.00 0.00 83 1010.1
20180518032405 54 240 46.0 50.0 0.00 0.00 0.00 82 1009.2
20180518030416 55 243 45.0 51.0 0.00 0.00 0.00 80 1009.3
20180518024903 56 241 42.0 49.0 0.00 0.00 0.00 79 1009.2
20180518022904 57 243 43.0 49.0 0.00 0.00 0.00 77 1009.2
20180518020914 58 236 42.0 50.0 0.00 0.00 0.00 75 1009.2
20180518015403 59 240 43.0 50.0 0.00 0.00 0.00 74 1009.0
20180518013420 60 239 40.0 47.0 0.00 0.00 0.00 72 1009.9
20180518011408 62 236 40.0 46.0 0.00 0.00 0.00 71 1009.8
20180518005412 63 244 33.0 39.0 0.00 0.00 0.00 70 1010.3
20180518003900 64 238 31.0 38.0 0.00 0.00 0.00 69 1010.6
20180518001903 64 237 32.0 39.0 0.00 0.00 0.00 70 1010.5
20180517235924 65 248 32.0 39.0 0.00 0.00 0.00 69 1010.5
20180517234409 65 251 32.0 40.0 0.00 0.00 0.00 67 1010.7
20180517232405 66 246 34.0 39.0 0.00 0.00 0.00 66 1010.7
20180517230415 66 238 32.0 37.0 0.00 0.00 0.00 64 1010.9
20180517224859 66 240 30.0 34.0 0.00 0.00 0.00 63 1011.3
20180517222900 67 250 27.0 34.0 0.00 0.00 0.00 63 1011.4
20180517220907 67 230 26.0 31.0 0.00 0.00 0.00 62 1011.8
20180517214913 67 247 23.0 29.0 0.00 0.00 0.00 58 1012.3
20180517212905 67 242 24.0 28.0 0.00 0.00 0.00 59 1012.2
20180517210910 67 248 19.0 26.0 0.00 0.00 0.00 62 1012.5
20180517204916 66 242 19.0 24.0 0.00 0.00 0.00 62 1012.7
20180517203406 66 242 20.0 23.0 0.00 0.00 0.00 62 1012.7
20180517201415 65 240 18.0 22.0 0.00 0.00 0.00 63 1012.8
20180517195416 65 249 18.0 21.0 0.00 0.00 0.00 63 1012.9
20180517193405 64 239 16.0 21.0 0.00 0.00 0.00 65 1013.2
20180517191412 63 237 17.0 20.0 0.00 0.00 0.00 68 1012.9
20180517185904 63 243 16.0 22.0 0.00 0.00 0.00 69 1013.4
20180517183911 62 251 17.0 22.0 0.00 0.00 0.00 71 1013.4
20180517181409 61 230 16.0 20.0 0.00 0.00 0.00 73 1013.6
20180517175415 60 240 14.0 20.0 0.00 0.00 0.00 75 1013.6
20180517173859 59 247 16.0 19.0 0.00 0.00 0.00 75 1013.6
20180517171910 58 242 16.0 19.0 0.00 0.00 0.00 76 1013.7
20180517165913 57 235 16.0 19.0 0.00 0.00 0.00 78 1013.9
20180517164403 56 232 16.0 20.0 0.00 0.00 0.00 79 1014.1
20180517162410 55 245 16.0 20.0 0.00 0.00 0.00 81 1014.3
20180517160415 54 239 18.0 22.0 0.00 0.00 0.00 82 1014.2
20180517154405 54 240 19.0 25.0 0.00 0.00 0.00 86 1014.0
20180517152410 53 244 19.0 28.0 0.00 0.00 0.00 88 1013.9
20180517150414 53 242 20.0 27.0 0.00 0.00 0.00 89 1013.8
20180517144905 53 242 18.0 25.0 0.00 0.00 0.00 89 1013.9
20180517142905 53 226 19.0 24.0 0.00 0.00 0.00 89 1013.8
20180517141401 53 247 19.0 24.0 0.00 0.00 0.00 89 1013.6
20180517135407 52 236 18.0 22.0 0.00 0.00 0.00 90 1013.6
20180517133413 52 240 20.0 27.0 0.00 0.00 0.00 90 1013.3
20180517131418 52 234 20.0 26.0 0.00 0.00 0.00 90 1013.2
20180517125907 52 235 23.0 27.0 0.00 0.00 0.00 90 1013.0
20180517123912 52 245 25.0 30.0 0.00 0.00 0.00 90 1012.9
20180517122359 51 244 22.0 26.0 0.00 0.00 0.00 90 1013.1
20180517120410 52 241 24.0 29.0 0.00 0.00 0.00 90 1012.9
20180517114411 52 237 23.0 29.0 0.00 0.00 0.00 90 1012.9
20180517112901 52 239 24.0 27.0 0.00 0.00 0.00 90 1012.9
20180517110921 52 232 20.0 25.0 0.00 0.00 0.00 90 1013.2
20180517105403 52 247 21.0 25.0 0.00 0.00 0.00 91 1013.1
20180517103412 52 238 17.0 25.0 0.00 0.00 0.00 91 1013.3
20180517101416 52 239 16.0 24.0 0.00 0.00 0.00 91 1013.7
20180517095407 52 238 21.0 25.0 0.00 0.00 0.00 90 1013.4
20180517093417 52 250 23.0 30.0 0.00 0.00 0.00 90 1013.4
20180517091407 52 242 26.0 30.0 0.00 0.00 0.00 90 1013.2
20180517085412 52 240 24.0 29.0 0.00 0.00 0.00 89 1013.4
20180517083901 52 244 25.0 29.0 0.00 0.00 0.00 89 1013.7
20180517081909 52 239 26.0 29.0 0.00 0.00 0.00 88 1014.0
20180517075954 52 249 26.0 30.0 0.00 0.00 0.00 88 1013.8
20180517073858 52 242 24.0 29.0 0.00 0.00 0.00 88 1014.2
20180517071906 52 234 21.0 26.0 0.00 0.00 0.00 88 1014.6
20180517065926 52 245 25.0 28.0 0.00 0.00 0.00 88 1014.3
20180517063901 52 246 23.0 29.0 0.00 0.00 0.00 87 1014.5
20180517061903 52 245 24.0 29.0 0.00 0.00 0.00 88 1014.4
20180517055910 52 233 27.0 31.0 0.00 0.00 0.00 88 1014.4
20180517053915 52 235 24.0 28.0 0.00 0.00 0.00 88 1014.7
20180517052356 52 244 25.0 28.0 0.00 0.00 0.00 88 1014.7
20180517050406 52 242 27.0 32.0 0.00 0.00 0.00 87 1014.5
20180517044408 52 249 23.0 30.0 0.00 0.00 0.00 86 1014.9
20180517042904 53 244 22.0 30.0 0.00 0.00 0.00 85 1014.9
20180517041355 53 259 23.0 31.0 0.00 0.00 0.00 82 1014.6
20180517035359 54 252 26.0 35.0 0.00 0.00 0.00 81 1014.5
20180517033404 54 260 31.0 36.0 0.00 0.00 0.00 77 1014.4
20180517031412 55 254 30.0 34.0 0.00 0.00 0.00 75 1014.4
20180517025855 56 253 31.0 37.0 0.00 0.00 0.00 72 1014.3
20180517023910 56 256 31.0 36.0 0.00 0.00 0.00 71 1014.7
20180517021900 57 250 29.0 34.0 0.00 0.00 0.00 69 1014.5
20180517015910 57 254 30.0 36.0 0.00 0.00 0.00 67 1014.3
20180517013906 57 264 33.0 36.0 0.00 0.00 0.00 68 1014.3
20180517011412 58 255 29.0 36.0 0.00 0.00 0.00 69 1014.5
20180517005858 59 240 28.0 36.0 0.00 0.00 0.00 67 1014.6
20180517003909 59 262 29.0 36.0 0.00 0.00 0.00 67 1014.8
20180517002353 59 265 29.0 35.0 0.00 0.00 0.00 67 1014.8
20180516234412 60 230 27.0 34.0 0.00 0.00 0.00 66 1015.0
20180516232415 60 236 25.0 30.0 0.00 0.00 0.00 65 1015.1
20180516230857 60 234 25.0 37.0 0.00 0.00 0.00 65 1015.1
20180516224907 60 225 22.0 31.0 0.00 0.00 0.00 66 1015.4
20180516222910 60 240 25.0 31.0 0.00 0.00 0.00 65 1015.2
20180516220400 61 239 19.0 26.0 0.00 0.00 0.00 62 1015.7
20180516214403 62 230 17.0 24.0 0.00 0.00 0.00 61 1015.9
20180516212413 61 250 17.0 24.0 0.00 0.00 0.00 60 1015.8
20180516210350 60 254 18.0 25.0 0.00 0.00 0.00 62 1015.7
20180516204836 61 239 19.0 27.0 0.00 0.00 0.00 62 1015.9
20180516202835 60 269 19.0 27.0 0.00 0.00 0.00 65 1015.8
20180516200847 59 240 21.0 29.0 0.00 0.00 0.00 65 1015.9
20180516195338 60 249 21.0 26.0 0.00 0.00 0.00 64 1015.9
20180516193348 60 250 16.0 23.0 0.00 0.00 0.00 65 1016.1
20180516190842 60 220 18.0 25.0 0.00 0.00 0.00 65 1016.3
20180516184846 59 245 19.0 28.0 0.00 0.00 0.00 67 1016.0
20180516182857 58 245 26.0 32.0 0.00 0.00 0.00 69 1015.1
20180516181347 57 240 22.0 28.0 0.00 0.00 0.00 71 1015.1
20180516175833 57 250 20.0 29.0 0.00 0.00 0.00 73 1015.3
20180516173840 57 225 20.0 26.0 0.00 0.00 0.00 74 1015.4
20180516171849 55 250 22.0 30.0 0.00 0.00 0.00 76 1015.0
20180516165852 55 261 21.0 29.0 0.00 0.00 0.00 77 1015.3
20180516164338 54 253 22.0 31.0 0.00 0.00 0.00 79 1015.0
20180516162351 55 257 21.0 35.0 0.00 0.00 0.00 81 1014.9
20180516160849 54 273 23.0 33.0 0.00 0.00 0.00 83 1014.9
20180516155333 52 237 26.0 33.0 0.00 0.00 0.00 83 1014.2
20180516153349 52 246 26.0 35.0 0.00 0.00 0.00 83 1013.8
20180516151352 51 249 33.0 41.0 0.00 0.00 0.00 85 1012.9
20180516145832 51 250 32.0 40.0 0.00 0.00 0.00 86 1013.1
20180516143847 51 245 35.0 41.0 0.00 0.00 0.00 86 1012.6
20180516141846 51 242 34.0 43.0 0.00 0.00 0.00 87 1012.6
20180516140337 51 240 36.0 45.0 0.00 0.00 0.00 88 1012.5
20180516133855 50 249 36.0 43.0 0.00 0.00 0.00 90 1012.6
20180516131838 50 252 36.0 43.0 0.00 0.00 0.00 89 1012.3
20180516125849 50 250 41.0 46.0 0.00 0.00 0.00 90 1011.8
20180516123841 50 244 35.0 42.0 0.00 0.00 0.00 90 1012.2
20180516121851 50 253 32.0 39.0 0.00 0.00 0.00 90 1012.3
20180516120334 50 261 35.0 40.0 0.00 0.00 0.00 89 1012.2
20180516114344 50 247 33.0 39.0 0.00 0.00 0.00 90 1012.5
20180516112350 50 262 28.0 40.0 0.00 0.00 0.00 89 1012.8
20180516110839 50 240 32.0 39.0 0.00 0.00 0.00 89 1012.4
20180516104850 50 240 30.0 36.0 0.00 0.00 0.00 89 1012.6
20180516103334 51 252 25.0 32.0 0.00 0.00 0.00 89 1013.2
20180516101352 51 251 25.0 33.0 0.00 0.00 0.00 88 1013.1
20180516095838 51 243 26.0 30.0 0.00 0.00 0.00 88 1013.0
20180516093847 51 266 24.0 34.0 0.00 0.00 0.00 87 1013.2
20180516092334 51 241 19.0 28.0 0.00 0.00 0.00 87 1013.5
20180516090343 51 240 21.0 31.0 0.00 0.00 0.00 86 1013.6
20180516084332 52 257 23.0 34.0 0.00 0.00 0.00 86 1013.2
20180516082336 52 248 21.0 29.0 0.00 0.00 0.00 86 1013.4
20180516080345 52 251 22.0 32.0 0.00 0.00 0.00 86 1013.4
20180516074839 52 266 20.0 31.0 0.00 0.00 0.00 86 1013.5
20180516072352 52 238 22.0 30.0 0.00 0.00 0.00 85 1013.5
20180516070834 52 243 19.0 28.0 0.00 0.00 0.00 85 1013.8
20180516064854 52 256 26.0 36.0 0.00 0.00 0.00 85 1013.2
20180516063339 52 251 27.0 34.0 0.00 0.00 0.00 85 1013.3
20180516061418 52 245 28.0 37.0 0.00 0.00 0.00 84 1013.3
20180516055413 52 247 31.0 41.0 0.00 0.00 0.00 84 1013.2
20180516053859 52 220 40.0 51.0 0.00 0.00 0.00 83 1012.0
20180516051908 52 240 42.0 47.0 0.00 0.00 0.00 82 1012.1
20180516045917 53 242 38.0 44.0 0.00 0.00 0.00 82 1012.3
20180516044400 53 240 36.0 43.0 0.00 0.00 0.00 81 1012.7
20180516042408 53 252 24.0 34.0 0.00 0.00 0.00 79 1013.4
20180516040414 54 240 33.0 42.0 0.00 0.00 0.00 77 1012.7
20180516034900 54 259 33.0 41.0 0.00 0.00 0.00 77 1012.4
20180516032905 55 257 28.0 38.0 0.00 0.00 0.00 76 1012.8
20180516030911 55 257 31.0 38.0 0.00 0.00 0.00 74 1012.8
20180516024918 56 266 29.0 38.0 0.00 0.00 0.00 74 1012.8
20180516022415 57 259 28.0 35.0 0.00 0.00 0.00 73 1012.6
20180516020407 57 264 29.0 35.0 0.00 0.00 0.00 73 1012.3
20180516014419 57 266 29.0 38.0 0.00 0.00 0.00 72 1012.5
20180516012408 58 259 33.0 38.0 0.00 0.00 0.00 73 1012.2
20180516010420 58 250 32.0 38.0 0.00 0.00 0.00 72 1012.6
20180516004907 59 264 28.0 36.0 0.00 0.00 0.00 72 1012.7
20180516002905 59 265 27.0 36.0 0.00 0.00 0.00 71 1012.8
20180516000911 60 264 26.0 40.0 0.00 0.00 0.00 70 1012.9
20180515235400 60 256 26.0 35.0 0.00 0.00 0.00 70 1012.6
20180515233416 59 240 28.0 37.0 0.00 0.00 0.00 71 1012.6
20180515231415 60 228 26.0 37.0 0.00 0.00 0.00 70 1012.8
20180515225403 60 251 26.0 35.0 0.00 0.00 0.00 69 1012.7
20180515223421 61 249 22.0 33.0 0.00 0.00 0.00 68 1013.1
20180515221859 60 233 24.0 34.0 0.00 0.00 0.00 68 1013.0
20180515215906 60 259 22.0 35.0 0.00 0.00 0.00 67 1013.2
20180515214357 60 263 24.0 34.0 0.00 0.00 0.00 69 1013.3
20180515212408 60 252 28.0 37.0 0.00 0.00 0.00 69 1013.1
20180515210416 59 215 24.0 32.0 0.00 0.00 0.00 70 1013.6
20180515204910 59 244 24.0 36.0 0.00 0.00 0.00 70 1013.5
20180515202930 59 240 27.0 33.0 0.00 0.00 0.00 69 1013.2
20180515201400 58 246 24.0 32.0 0.00 0.00 0.00 70 1013.5
20180515195409 57 233 26.0 31.0 0.00 0.00 0.00 72 1013.7
20180515193419 57 240 25.0 37.0 0.00 0.00 0.00 73 1013.9
20180515191906 56 250 25.0 33.0 0.00 0.00 0.00 74 1013.8
20180515185916 56 240 26.0 35.0 0.00 0.00 0.00 73 1013.9
20180515184359 56 241 21.0 33.0 0.00 0.00 0.00 74 1014.2
20180515181915 55 263 25.0 33.0 0.00 0.00 0.00 77 1014.2
20180515180406 55 253 28.0 34.0 0.00 0.00 0.00 78 1014.1
20180515174422 54 240 28.0 33.0 0.00 0.00 0.00 77 1013.9
20180515172858 54 258 24.0 30.0 0.00 0.00 0.00 78 1014.0
20180515170917 53 238 19.0 27.0 0.00 0.00 0.00 81 1014.1
20180515165408 53 259 20.0 25.0 0.00 0.00 0.00 80 1014.0
20180515163416 52 240 21.0 25.0 0.00 0.00 0.00 83 1014.1
20180515161405 52 240 20.0 25.0 0.00 0.00 0.00 83 1014.2
20180515155409 52 264 20.0 24.0 0.00 0.00 0.00 84 1013.9
20180515153859 51 244 17.0 25.0 0.00 0.00 0.00 85 1014.0
20180515151900 51 264 20.0 24.0 0.00 0.00 0.00 85 1013.8
20180515145917 51 272 19.0 25.0 0.00 0.00 0.00 85 1013.7
20180515144357 51 271 17.0 24.0 0.00 0.00 0.00 86 1013.6
20180515142408 51 261 15.0 26.0 0.00 0.00 0.00 86 1013.6
20180515140416 51 267 20.0 25.0 0.00 0.00 0.00 86 1013.2
20180515134857 50 268 19.0 26.0 0.00 0.00 0.00 86 1013.1
20180515132907 50 261 16.0 23.0 0.00 0.00 0.00 87 1012.7
20180515130919 51 263 23.0 28.0 0.00 0.00 0.00 86 1012.3
20180515125404 51 271 23.0 30.0 0.00 0.00 0.00 86 1012.2
20180515123413 51 266 19.0 26.0 0.00 0.00 0.00 86 1012.5
20180515121415 51 270 22.0 27.0 0.00 0.00 0.00 85 1012.0
20180515115907 51 266 19.0 25.0 0.00 0.00 0.00 86 1012.2
20180515113914 51 252 16.0 22.0 0.00 0.00 0.00 86 1012.3
20180515112404 51 257 18.0 28.0 0.00 0.00 0.00 86 1012.1
20180515110414 51 260 17.0 25.0 0.00 0.00 0.00 86 1012.1
20180515104900 51 266 17.0 29.0 0.00 0.00 0.00 86 1011.9
20180515102912 51 259 24.0 31.0 0.00 0.00 0.00 86 1011.7
20180515100914 51 247 19.0 30.0 0.00 0.00 0.00 87 1011.7
20180515095357 51 276 15.0 28.0 0.00 0.00 0.00 87 1012.1
20180515093416 51 267 14.0 30.0 0.00 0.00 0.00 86 1012.0
20180515091404 51 280 10.0 21.0 0.00 0.00 0.00 86 1012.4
20180515084843 51 258 21.0 30.0 0.00 0.00 0.00 86 1012.0
20180515082843 51 256 29.0 41.0 0.00 0.00 0.00 85 1011.4
20180515080850 51 221 21.0 30.0 0.00 0.00 0.00 86 1011.6
20180515074836 51 240 24.0 33.0 0.00 0.00 0.00 85 1011.5
20180515073315 51 234 22.0 33.0 0.00 0.00 0.00 86 1011.5
20180515071816 51 245 22.0 33.0 0.00 0.00 0.00 86 1011.5
20180515065839 51 268 29.0 36.0 0.00 0.00 0.00 86 1011.1
20180515063835 51 247 24.0 32.0 0.00 0.00 0.00 86 1011.7
20180515062335 51 241 21.0 35.0 0.00 0.00 0.00 87 1012.0
20180515060823 51 250 23.0 33.0 0.00 0.00 0.00 87 1011.7
20180515054829 51 240 30.0 40.0 0.00 0.00 0.00 87 1011.5
20180515053320 51 246 31.0 39.0 0.00 0.00 0.00 87 1011.1
20180515051324 51 232 23.0 32.0 0.00 0.00 0.00 87 1011.4
20180515045814 51 263 28.0 36.0 0.00 0.00 0.00 87 1011.1
20180515043822 51 239 23.0 28.0 0.00 0.00 0.00 86 1011.6
20180515042312 51 266 21.0 34.0 0.00 0.00 0.00 87 1011.7
20180515040323 52 256 19.0 33.0 0.00 0.00 0.00 86 1011.5
20180515034331 52 278 20.0 30.0 0.00 0.00 0.00 85 1011.5
20180515032816 52 246 22.0 28.0 0.00 0.00 0.00 85 1011.3
20180515030819 52 245 18.0 35.0 0.00 0.00 0.00 85 1010.8
20180515024834 53 248 42.0 52.0 0.00 0.00 0.00 84 1008.8
20180515023320 53 249 49.0 56.0 0.00 0.00 0.00 83 1007.3
20180515021324 54 244 49.0 57.0 0.00 0.00 0.00 82 1007.3
20180515014828 55 251 50.0 58.0 0.00 0.00 0.00 79 1007.3
20180515013312 56 249 50.0 57.0 0.00 0.00 0.00 78 1007.6
20180515011316 56 251 50.0 57.0 0.00 0.00 0.00 78 1007.6
20180515005327 58 254 48.0 56.0 0.00 0.00 0.00 75 1007.9
20180515003813 58 259 48.0 55.0 0.00 0.00 0.00 74 1007.7
20180515001326 59 227 42.0 53.0 0.00 0.00 0.00 74 1008.2
20180514235813 58 253 42.0 51.0 0.00 0.00 0.00 74 1008.7
20180514233831 58 247 43.0 52.0 0.00 0.00 0.00 74 1008.7
20180514232316 58 256 44.0 53.0 0.00 0.00 0.00 75 1008.9
20180514230326 58 217 42.0 46.0 0.00 0.00 0.00 76 1009.6
20180514224323 63 250 12.0 24.0 0.00 0.00 0.00 67 1010.2
20180514222324 62 240 13.0 21.0 0.00 0.00 0.00 70 1010.2
20180514220333 62 235 12.0 24.0 0.00 0.00 0.00 69 1010.1
20180514214329 63 264 9.0 19.0 0.00 0.00 0.00 69 1011.2
20180514212828 63 232 10.0 20.0 0.00 0.00 0.00 69 1011.0
20180514210821 63 216 11.0 20.0 0.00 0.00 0.00 69 1011.1
20180514204829 62 195 14.0 23.0 0.00 0.00 0.00 70 1011.1
20180514202812 62 216 10.0 22.0 0.00 0.00 0.00 71 1011.1
20180514200820 61 272 9.0 20.0 0.00 0.00 0.00 72 1011.5
20180514194825 61 254 7.0 18.0 0.00 0.00 0.00 73 1011.9
20180514192817 60 249 8.0 17.0 0.00 0.00 0.00 73 1011.9
20180514190831 59 256 11.0 19.0 0.00 0.00 0.00 74 1011.8
20180514185311 59 249 10.0 19.0 0.00 0.00 0.00 74 1012.2
20180514183322 58 256 8.0 19.0 0.00 0.00 0.00 76 1012.2
20180514181328 58 275 8.0 17.0 0.00 0.00 0.00 76 1012.4
20180514175812 58 249 8.0 16.0 0.00 0.00 0.00 76 1012.2
20180514173823 57 265 7.0 16.0 0.00 0.00 0.00 78 1012.5
20180514171833 56 275 9.0 16.0 0.00 0.00 0.00 79 1012.3
20180514170313 56 290 10.0 19.0 0.00 0.00 0.00 79 1012.2
20180514164322 55 275 7.0 16.0 0.00 0.00 0.00 81 1012.2
20180514162315 55 241 7.0 17.0 0.00 0.00 0.00 82 1012.4
20180514160318 54 249 5.0 15.0 0.00 0.00 0.00 84 1012.3
20180514154331 53 281 7.0 13.0 0.00 0.00 0.00 85 1011.8
20180514152817 53 283 7.0 14.0 0.00 0.00 0.00 86 1012.1
20180514150830 52 233 4.0 11.0 0.00 0.00 0.00 86 1011.9
20180514144324 52 228 6.0 19.0 0.00 0.00 0.00 87 1011.7
20180514142816 52 278 4.0 9.0 0.00 0.00 0.00 87 1011.9
20180514140824 52 226 6.0 12.0 0.00 0.00 0.00 87 1011.9
20180514134315 52 235 6.0 10.0 0.00 0.00 0.00 87 1011.5
20180514132324 52 238 5.0 15.0 0.00 0.00 0.00 87 1011.0
20180514130813 52 245 6.0 12.0 0.00 0.00 0.00 87 1011.3
20180514124826 52 256 4.0 11.0 0.00 0.00 0.00 87 1011.2
20180514122833 52 251 5.0 12.0 0.00 0.00 0.00 87 1011.1
20180514120818 52 240 6.0 14.0 0.00 0.00 0.00 88 1011.4
20180514114833 52 253 6.0 11.0 0.00 0.00 0.00 87 1011.3
20180514112830 52 249 4.0 9.0 0.00 0.00 0.00 87 1011.5
20180514111317 52 273 2.0 9.0 0.00 0.00 0.00 88 1011.5
20180514105324 52 237 5.0 11.0 0.00 0.00 0.00 87 1011.3
20180514103318 52 264 2.0 10.0 0.00 0.00 0.00 87 1011.8
20180514101319 52 237 3.0 13.0 0.00 0.00 0.00 86 1011.8
20180514095330 53 204 6.0 14.0 0.00 0.00 0.00 86 1011.9
20180514093815 53 220 2.0 10.0 0.00 0.00 0.00 86 1011.7
20180514092022 53 245 3.0 10.0 0.00 0.00 0.00 86 1011.8
20180514090332 53 324 3.0 7.0 0.00 0.00 0.00 85 1011.8
20180514084337 53 323 4.0 9.0 0.00 0.00 0.00 85 1011.3
20180514082823 53 83 3.0 10.0 0.00 0.00 0.00 85 1011.3
20180514080832 53 271 4.0 10.0 0.00 0.00 0.00 84 1010.5
20180514074838 53 319 2.0 8.0 0.00 0.00 0.00 84 1011.9
20180514072827 53 266 3.0 12.0 0.00 0.00 0.00 83 1012.2
20180514070837 53 349 2.0 11.0 0.00 0.00 0.00 83 1012.0
20180514064839 53 62 2.0 7.0 0.00 0.00 0.00 83 1011.3
20180514062826 53 43 2.0 9.0 0.00 0.00 0.00 83 1012.0
20180514060838 53 100 2.0 9.0 0.00 0.00 0.00 83 1011.8
20180514055324 53 334 2.0 7.0 0.00 0.00 0.00 83 1011.6
20180514053327 53 199 2.0 6.0 0.00 0.00 0.00 82 1012.2
20180514050840 53 329 3.0 10.0 0.00 0.00 0.00 82 1011.8
20180514044834 54 350 3.0 10.0 0.00 0.00 0.00 81 1011.7
20180514042337 54 302 2.0 13.0 0.00 0.00 0.00 79 1011.3
20180514040325 55 242 3.0 15.0 0.00 0.00 0.00 79 1011.3
20180514034330 55 325 6.0 13.0 0.00 0.00 0.00 77 1010.4
20180514032343 56 245 7.0 14.0 0.00 0.00 0.00 76 1010.6
20180514030332 57 273 3.0 24.0 0.00 0.00 0.00 75 1010.8
20180514024338 58 258 10.0 26.0 0.00 0.00 0.00 73 1008.6
20180514022826 59 265 11.0 23.0 0.00 0.00 0.00 71 1008.1
20180514020831 60 253 10.0 24.0 0.00 0.00 0.00 69 1008.0
20180514014837 61 245 10.0 21.0 0.00 0.00 0.00 68 1008.1
20180514013331 61 240 12.0 23.0 0.00 0.00 0.00 68 1008.4
20180514011330 62 281 11.0 26.0 0.00 0.00 0.00 68 1008.8
20180514005340 62 240 12.0 26.0 0.00 0.00 0.00 69 1008.7
20180514003324 62 226 14.0 26.0 0.00 0.00 0.00 68 1009.1
20180514001325 62 242 14.0 24.0 0.00 0.00 0.00 67 1009.9
20180513235338 63 310 9.0 24.0 0.00 0.00 0.00 66 1009.9
20180513233824 63 220 11.0 24.0 0.00 0.00 0.00 66 1010.4
20180513231836 64 211 10.0 22.0 0.00 0.00 0.00 64 1010.5
20180513230327 64 221 13.0 21.0 0.00 0.00 0.00 63 1010.9
20180513224332 64 226 10.0 25.0 0.00 0.00 0.00 63 1011.2
20180513222342 64 220 12.0 22.0 0.00 0.00 0.00 63 1011.3
20180513220822 65 265 8.0 20.0 0.00 0.00 0.00 63 1012.0
20180513214831 66 143 8.0 16.0 0.00 0.00 0.00 62 1012.1
20180513212836 65 258 7.0 16.0 0.00 0.00 0.00 64 1012.4
20180513211323 65 194 9.0 18.0 0.00 0.00 0.00 62 1012.5
20180513205338 65 268 10.0 17.0 0.00 0.00 0.00 64 1012.7
20180513203819 64 230 10.0 18.0 0.00 0.00 0.00 64 1013.1
20180513201822 64 264 7.0 16.0 0.00 0.00 0.00 65 1013.1
20180513195833 63 258 9.0 20.0 0.00 0.00 0.00 65 1012.8
20180513194320 63 211 6.0 16.0 0.00 0.00 0.00 67 1013.2
20180513192340 62 334 9.0 17.0 0.00 0.00 0.00 67 1013.3
20180513190829 61 215 7.0 16.0 0.00 0.00 0.00 68 1013.1
20180513184837 61 259 6.0 14.0 0.00 0.00 0.00 70 1013.3
20180513182847 60 200 6.0 15.0 0.00 0.00 0.00 72 1013.5
20180513181325 59 226 4.0 17.0 0.00 0.00 0.00 74 1013.2
20180513175337 59 287 6.0 15.0 0.00 0.00 0.00 73 1013.2
20180513173827 58 242 8.0 16.0 0.00 0.00 0.00 74 1013.0
20180513171836 58 248 10.0 17.0 0.00 0.00 0.00 74 1012.8
20180513165846 57 254 5.0 14.0 0.00 0.00 0.00 77 1012.9
20180513163829 57 227 5.0 10.0 0.00 0.00 0.00 77 1012.9
20180513161838 57 269 6.0 12.0 0.00 0.00 0.00 78 1012.8
20180513155847 56 220 7.0 14.0 0.00 0.00 0.00 78 1012.1
20180513154327 56 249 6.0 14.0 0.00 0.00 0.00 80 1012.9
20180513152341 55 137 4.0 12.0 0.00 0.00 0.00 81 1012.6
20180513150834 55 270 3.0 11.0 0.00 0.00 0.00 81 1012.0
20180513144842 55 223 3.0 14.0 0.00 0.00 0.00 81 1011.7
20180513142830 55 252 4.0 12.0 0.00 0.00 0.00 82 1012.0
20180513140843 54 258 7.0 12.0 0.00 0.00 0.00 82 1011.8
20180513135338 54 252 7.0 12.0 0.00 0.00 0.00 82 1011.3
20180513133339 54 238 3.0 12.0 0.00 0.00 0.00 83 1011.4
20180513131839 54 264 6.0 14.0 0.00 0.00 0.00 83 1011.3
20180513125846 54 341 4.0 9.0 0.00 0.00 0.00 83 1010.9
20180513124327 54 269 3.0 11.0 0.00 0.00 0.00 83 1011.1
20180513122330 54 219 5.0 8.0 0.00 0.00 0.00 83 1010.8
20180513120343 54 319 3.0 8.0 0.00 0.00 0.00 83 1010.3
20180513114829 54 276 4.0 9.0 0.00 0.00 0.00 83 1009.7
20180513112839 54 333 4.0 10.0 0.00 0.00 0.00 84 1010.4
20180513111330 54 313 4.0 11.0 0.00 0.00 0.00 84 1010.4
20180513105337 54 309 3.0 8.0 0.00 0.00 0.00 85 1009.2
20180513103825 54 351 3.0 9.0 0.00 0.00 0.00 84 1009.2
20180513101834 54 344 4.0 10.0 0.00 0.00 0.00 85 1009.8
20180513095844 54 127 1.0 9.0 0.00 0.00 0.00 85 1009.5
20180513094326 54 300 3.0 10.0 0.00 0.00 0.00 85 1009.3
20180513092342 54 95 2.0 12.0 0.00 0.00 0.00 85 1009.1
20180513090825 54 208 7.0 21.0 0.00 0.00 0.00 84 1009.4
20180513084831 54 15 1.0 11.0 0.00 0.00 0.00 84 1009.4
20180513082849 54 347 3.0 8.0 0.00 0.00 0.00 84 1010.0
20180513080830 54 24 5.0 12.0 0.00 0.00 0.00 85 1009.8
20180513074838 54 33 2.0 8.0 0.00 0.00 0.00 85 1009.5
20180513072842 54 185 2.0 12.0 0.00 0.00 0.00 86 1009.2
20180513070820 54 339 4.0 9.0 0.00 0.00 0.00 86 1009.0
20180513064828 54 142 5.0 10.0 0.00 0.00 0.00 85 1009.2
20180513062828 54 226 6.0 14.0 0.00 0.00 0.00 85 1009.6
20180513060821 54 287 4.0 16.0 0.00 0.00 0.00 85 1010.0
20180513054826 55 317 11.0 23.0 0.00 0.00 0.00 84 1009.0
20180513052830 55 216 8.0 18.0 0.00 0.00 0.00 84 1008.2
20180513050815 55 259 5.0 19.0 0.00 0.00 0.00 84 1007.9
20180513044834 53 248 33.0 46.0 0.00 0.00 0.00 85 1008.9
20180513042845 53 249 34.0 41.0 0.00 0.00 0.00 86 1008.5
20180513040850 56 193 7.0 25.0 0.00 0.00 0.00 82 1007.9
20180513035331 56 245 11.0 25.0 0.00 0.00 0.00 81 1006.2
20180513033344 56 184 12.0 27.0 0.00 0.00 0.00 81 1005.9
20180513031348 57 204 12.0 23.0 0.00 0.00 0.00 78 1005.9
20180513025351 57 245 9.0 23.0 0.00 0.00 0.00 77 1006.0
20180513022348 59 222 13.0 23.0 0.00 0.00 0.00 73 1006.4
20180513020843 60 267 13.0 28.0 0.00 0.00 0.00 70 1006.2
20180513014851 61 222 11.0 22.0 0.00 0.00 0.00 68 1006.2
20180513012836 62 221 11.0 25.0 0.00 0.00 0.00 67 1006.0
20180513010842 63 222 10.0 22.0 0.00 0.00 0.00 64 1006.3
20180513004852 63 233 13.0 26.0 0.00 0.00 0.00 63 1006.5
20180513003344 63 202 9.0 24.0 0.00 0.00 0.00 64 1006.3
20180513001350 63 157 14.0 26.0 0.00 0.00 0.00 63 1006.2
20180512235339 64 212 15.0 27.0 0.00 0.00 0.00 63 1006.3
20180512233349 65 198 10.0 25.0 0.00 0.00 0.00 62 1006.3
20180512231347 64 191 16.0 28.0 0.00 0.00 0.00 61 1006.1
20180512225843 65 261 14.0 28.0 0.00 0.00 0.00 60 1006.6
20180512224332 61 230 34.0 42.0 0.00 0.00 0.00 69 1006.8
20180512222341 61 245 35.0 41.0 0.00 0.00 0.00 66 1006.5
20180512220345 66 216 14.0 27.0 0.00 0.00 0.00 58 1006.3
20180512214343 67 172 14.0 30.0 0.00 0.00 0.00 54 1006.5
20180512212350 68 214 13.0 28.0 0.00 0.00 0.00 52 1006.7
20180512210835 69 207 11.0 26.0 0.00 0.00 0.00 52 1006.9
20180512204839 71 219 11.0 22.0 0.00 0.00 0.00 50 1007.1
20180512202853 70 257 11.0 27.0 0.00 0.00 0.00 52 1006.9
20180512200844 72 210 11.0 22.0 0.00 0.00 0.00 47 1007.1
20180512194925 73 188 10.0 19.0 0.00 0.00 0.00 44 1007.3
20180512193352 74 214 7.0 20.0 0.00 0.00 0.00 45 1007.5
20180512191837 74 212 9.0 16.0 0.00 0.00 0.00 42 1007.6
20180512185843 75 211 6.0 15.0 0.00 0.00 0.00 40 1007.6
20180512183851 78 350 6.0 12.0 0.00 0.00 0.00 37 1007.7
20180512181841 79 322 4.0 8.0 0.00 0.00 0.00 27 1008.2
20180512175855 78 268 3.0 7.0 0.00 0.00 0.00 28 1008.2
20180512174336 78 39 2.0 9.0 0.00 0.00 0.00 30 1008.0
20180512172341 77 339 4.0 10.0 0.00 0.00 0.00 29 1007.8
20180512170840 76 14 3.0 8.0 0.00 0.00 0.00 30 1007.7
20180512164851 76 285 5.0 11.0 0.00 0.00 0.00 31 1007.8
20180512163336 75 349 5.0 9.0 0.00 0.00 0.00 31 1007.9
20180512161339 74 321 8.0 12.0 0.00 0.00 0.00 32 1008.0
20180512155344 73 341 4.0 10.0 0.00 0.00 0.00 33 1007.8
20180512153837 72 327 5.0 13.0 0.00 0.00 0.00 33 1007.8
20180512151833 72 292 5.0 11.0 0.00 0.00 0.00 34 1007.6
20180512145841 71 317 4.0 11.0 0.00 0.00 0.00 35 1007.8
20180512143846 70 312 4.0 12.0 0.00 0.00 0.00 37 1007.2
20180512141850 69 330 2.0 8.0 0.00 0.00 0.00 37 1007.6
20180512140335 68 339 5.0 11.0 0.00 0.00 0.00 38 1007.2
20180512134346 65 280 3.0 8.0 0.00 0.00 0.00 42 1007.2
20180512132347 66 311 1.0 7.0 0.00 0.00 0.00 39 1007.1
20180512130348 65 305 4.0 8.0 0.00 0.00 0.00 40 1006.5
20180512124335 65 267 2.0 5.0 0.00 0.00 0.00 41 1006.8
20180512122345 68 323 2.0 9.0 0.00 0.00 0.00 36 1007.0
20180512120350 68 324 7.0 14.0 0.00 0.00 0.00 35 1006.5
20180512114335 68 317 4.0 9.0 0.00 0.00 0.00 36 1006.7
20180512112340 68 323 4.0 9.0 0.00 0.00 0.00 35 1006.6
20180512110352 69 345 4.0 12.0 0.00 0.00 0.00 34 1006.6
20180512104341 69 331 5.0 11.0 0.00 0.00 0.00 34 1006.3
20180512102346 69 311 5.0 11.0 0.00 0.00 0.00 34 1006.6
20180512100339 69 346 4.0 13.0 0.00 0.00 0.00 34 1006.7
20180512094340 69 322 3.0 7.0 0.00 0.00 0.00 32 1006.8
20180512092347 69 324 4.0 9.0 0.00 0.00 0.00 30 1006.7
20180512090844 70 318 3.0 8.0 0.00 0.00 0.00 30 1006.8
20180512084843 69 325 4.0 9.0 0.00 0.00 0.00 31 1006.8
20180512082851 68 317 2.0 7.0 0.00 0.00 0.00 33 1007.0
20180512081340 68 316 1.0 4.0 0.00 0.00 0.00 32 1007.0
20180512075347 70 317 2.0 6.0 0.00 0.00 0.00 29 1007.0
20180512073347 70 301 1.0 4.0 0.00 0.00 0.00 29 1007.1
20180512071349 70 254 2.0 4.0 0.00 0.00 0.00 30 1007.1
20180512065342 71 253 1.0 7.0 0.00 0.00 0.00 29 1006.9
20180512063351 72 226 2.0 5.0 0.00 0.00 0.00 28 1007.0
20180512061839 73 273 2.0 7.0 0.00 0.00 0.00 26 1007.0
20180512055851 74 313 3.0 9.0 0.00 0.00 0.00 25 1006.7
20180512053841 74 339 3.0 10.0 0.00 0.00 0.00 25 1006.7
20180512051838 74 333 4.0 10.0 0.00 0.00 0.00 24 1006.4
20180512045848 75 320 4.0 12.0 0.00 0.00 0.00 24 1006.1
20180512044336 75 323 7.0 14.0 0.00 0.00 0.00 23 1005.9
20180512042341 75 323 6.0 14.0 0.00 0.00 0.00 23 1005.7
20180512040355 75 328 6.0 17.0 0.00 0.00 0.00 23 1005.0
20180512034839 75 326 6.0 17.0 0.00 0.00 0.00 23 1004.7
20180512032837 76 299 5.0 16.0 0.00 0.00 0.00 23 1004.5
20180512030853 77 351 7.0 17.0 0.00 0.00 0.00 22 1005.2
20180512024845 78 329 4.0 12.0 0.00 0.00 0.00 22 1005.0
20180512022851 79 316 4.0 11.0 0.00 0.00 0.00 21 1005.0
20180512020846 80 311 5.0 19.0 0.00 0.00 0.00 20 1004.8
20180512014847 80 309 6.0 14.0 0.00 0.00 0.00 19 1005.0
20180512013338 81 328 6.0 16.0 0.00 0.00 0.00 18 1004.7
20180512011342 81 339 5.0 18.0 0.00 0.00 0.00 18 1004.9
20180512005352 82 334 6.0 12.0 0.00 0.00 0.00 17 1004.5
20180512003838 82 351 6.0 14.0 0.00 0.00 0.00 17 1004.9
20180512001844 82 329 6.0 18.0 0.00 0.00 0.00 17 1004.9
20180511235848 82 7 6.0 16.0 0.00 0.00 0.00 19 1005.0
20180511233848 82 346 7.0 14.0 0.00 0.00 0.00 19 1005.2
20180511232336 81 351 5.0 13.0 0.00 0.00 0.00 19 1005.1
20180511230342 81 335 4.0 11.0 0.00 0.00 0.00 20 1005.6
20180511224350 80 278 6.0 14.0 0.00 0.00 0.00 21 1005.6
20180511222842 80 335 3.0 10.0 0.00 0.00 0.00 21 1005.9
20180511220845 79 295 6.0 13.0 0.00 0.00 0.00 21 1006.1
20180511214844 80 286 3.0 12.0 0.00 0.00 0.00 21 1006.4
20180511212857 79 339 5.0 13.0 0.00 0.00 0.00 23 1006.5
20180511211338 78 323 6.0 15.0 0.00 0.00 0.00 23 1006.5
20180511205343 77 335 6.0 14.0 0.00 0.00 0.00 23 1006.6
20180511203349 78 349 5.0 11.0 0.00 0.00 0.00 24 1006.5
20180511201350 77 278 7.0 15.0 0.00 0.00 0.00 25 1006.7
20180511195840 76 312 5.0 14.0 0.00 0.00 0.00 25 1007.0
20180511193842 75 221 3.0 9.0 0.00 0.00 0.00 40 1007.4
20180511191850 74 246 4.0 10.0 0.00 0.00 0.00 41 1007.6
20180511190340 73 223 3.0 10.0 0.00 0.00 0.00 41 1007.5
20180511184352 72 262 5.0 10.0 0.00 0.00 0.00 44 1007.7
20180511182344 70 264 4.0 11.0 0.00 0.00 0.00 46 1007.9
20180511180351 69 242 4.0 12.0 0.00 0.00 0.00 54 1008.1
20180511174839 68 223 4.0 11.0 0.00 0.00 0.00 50 1008.1
20180511172850 68 315 3.0 10.0 0.00 0.00 0.00 53 1008.2
20180511170344 68 318 1.0 5.0 0.00 0.00 0.00 53 1008.3
20180511164346 66 292 2.0 9.0 0.00 0.00 0.00 60 1008.4
20180511162339 66 215 2.0 7.0 0.00 0.00 0.00 60 1008.4
20180511160834 65 264 1.0 7.0 0.00 0.00 0.00 59 1008.2
20180511154848 64 247 2.0 7.0 0.00 0.00 0.00 61 1008.3
20180511153341 62 243 1.0 6.0 0.00 0.00 0.00 65 1008.1
20180511151339 59 210 3.0 12.0 0.00 0.00 0.00 75 1008.1
20180511145354 59 202 5.0 10.0 0.00 0.00 0.00 78 1007.8
20180511143837 58 181 2.0 4.0 0.00 0.00 0.00 79 1007.8
20180511141844 57 181 2.0 7.0 0.00 0.00 0.00 80 1007.9
20180511140336 57 166 4.0 8.0 0.00 0.00 0.00 79 1007.7
20180511134339 57 178 1.0 3.0 0.00 0.00 0.00 80 1007.7
20180511132345 55 181 2.0 7.0 0.00 0.00 0.00 83 1007.5
20180511130352 55 136 3.0 6.0 0.00 0.00 0.00 83 1007.5
20180511124336 55 147 0.0 5.0 0.00 0.00 0.00 82 1007.1
20180511122342 56 150 1.0 2.0 0.00 0.00 0.00 80 1006.9
20180511120347 56 106 1.0 4.0 0.00 0.00 0.00 79 1007.0
20180511114836 57 95 1.0 4.0 0.00 0.00 0.00 78 1007.1
20180511112850 56 155 2.0 4.0 0.00 0.00 0.00 80 1007.1
20180511111338 56 133 2.0 5.0 0.00 0.00 0.00 81 1007.1
20180511105347 56 121 1.0 4.0 0.00 0.00 0.00 80 1007.0
20180511103337 57 264 2.0 15.0 0.00 0.00 0.00 79 1007.3
20180511101352 58 233 2.0 10.0 0.00 0.00 0.00 77 1007.1
20180511095841 57 228 6.0 14.0 0.00 0.00 0.00 78 1006.9
20180511093850 57 216 3.0 13.0 0.00 0.00 0.00 78 1007.1
20180511092350 58 21 3.0 9.0 0.00 0.00 0.00 76 1007.0
20180511090836 57 122 4.0 15.0 0.00 0.00 0.00 78 1007.0
20180511084848 57 195 4.0 18.0 0.00 0.00 0.00 78 1007.0
20180511083340 57 205 2.0 10.0 0.00 0.00 0.00 80 1007.2
20180511081342 56 65 2.0 8.0 0.00 0.00 0.00 81 1007.3
20180511075353 57 84 3.0 8.0 0.00 0.00 0.00 80 1007.1
20180511073338 57 121 2.0 5.0 0.00 0.00 0.00 79 1007.2
20180511071340 57 121 3.0 15.0 0.00 0.00 0.00 79 1007.3
20180511065352 58 162 6.0 22.0 0.00 0.00 0.00 78 1007.2
20180511062845 58 213 2.0 10.0 0.00 0.00 0.00 76 1007.0
20180511060849 58 211 4.0 12.0 0.00 0.00 0.00 76 1007.3
20180511055335 59 171 3.0 11.0 0.00 0.00 0.00 75 1007.3
20180511053345 59 157 4.0 14.0 0.00 0.00 0.00 73 1007.4
20180511051347 60 350 3.0 18.0 0.00 0.00 0.00 73 1007.6
20180511045832 60 196 6.0 17.0 0.00 0.00 0.00 72 1007.4
20180511043839 61 191 6.0 17.0 0.00 0.00 0.00 69 1007.4
20180511041847 61 202 7.0 17.0 0.00 0.00 0.00 69 1007.1
20180511035840 62 265 5.0 19.0 0.00 0.00 0.00 67 1007.0
20180511033848 63 184 6.0 22.0 0.00 0.00 0.00 66 1007.4
20180511032335 63 213 11.0 22.0 0.00 0.00 0.00 67 1006.9
20180511030349 65 202 8.0 20.0 0.00 0.00 0.00 64 1006.7
20180511024839 66 216 11.0 20.0 0.00 0.00 0.00 61 1006.6
20180511022839 67 175 11.0 19.0 0.00 0.00 0.00 60 1007.0
20180511020847 68 237 9.0 19.0 0.00 0.00 0.00 57 1006.8
20180511015344 69 213 9.0 19.0 0.00 0.00 0.00 55 1006.9